カタログに戻る

STARLINK-6143

運用中通信VLEO
NORAD 57133·PAYLOAD·🇺🇸 United States

打ち上げ Jun 23, 2023 から Cape Canaveral Space Force Station

Loading…

次のパス (今後24時間)

TLE

最新Source: CelesTrak SupGP

元期: Sep 15, 2026, 03:16 UTC

1 57133C 23090AJ  26258.13659722 -.00016766  00000+0 -60732-3 0  2587
2 57133  43.0020 273.3773 0001906 271.2606 234.0200 15.27582699    18

AllMySatでSTARLINK-6143をリアルタイム追跡

Download on the App Store